Showing default

METEOR 2-11, 15099

Orbit data source: Space-Track

METEOR 2-11, 15099 is a Commonwealth of Independent States-origin payload satellite in LEO that was launched on Thu, 05 Jul 1984 UTC via a TSIKLON-3 launch vehicle from the Plesetsk Missile And Space Complex (PKMTR). Payload-class satellites include a variety of spacecraft equipped with specific instruments for various scientific and technological missions. These include communications satellites like Starlink; space stations such as the ISS; scientific satellites like the Hubble; Earth observation satellites from companies like Planet Labs, Umbra, and HawkEye 360; GPS; miniature CubeSats for education and research; and military/defense satellites.

Loading next visibility...
Identifier
15099, 1984-072A
Orbit
LEO
Country
Flag of CISCIS
Related business
Manufacturer
VNIIEM
Mission
Civil Weather
Bus & Motor
METEOR-2, Unknown motor
Mass
~1,500 kg wet, ~1,500 kg dry
Launch date (UTC)
1984-07-05 (41 years ago)
Launch vehicle
TSIKLON-3
Launch site
Plesetsk Missile And Space Complex (PKMTR)
Object type
Payload
Rocket body
Debris
Shape & HBR
Cyl + 2 Pan, 2.3 m
Radar Cross Section
5.718 m², Large (>1 m²)

Expand to show TLE details & history
Last TLE update: 11 hours ago

TLE from 11 hours ago
0 METEOR 2-11
1 15099U 84072A   25260.96533716  .00000062  00000-0  41235-4 0  9997
2 15099  82.5265 256.2622 0014232 131.4269 228.8118 13.85271872 82652
Epoch: 2025-09-17T23:10Z
TLE epoch observation values (Epoch: 2025-09-17T23:10:05.13Z)
Latitude
0.00005°
Longitude
-88.39289°
Altitude
955.024 km
Speed
7.371 km/s
True Right ascension
17h 05m 02s
True Declination
0° 00' 00"
Sunlit
Object was in daylight at epoch
Visualization orbit readout
Latitude
Unknown
Longitude
Unknown
Altitude
Unknown
Speed
Unknown
Apparent Right ascension
Unknown
Apparent Declination
Unknown
Sunlit
N/A
Visualization observer readout
Local Sidereal Time
03:23:20
Azimuth
Unknown
Elevation
Unknown
Doppler factor
Unknown
Orbital elements
Apogee altitude
952.817 km
Perigee altitude
931.98 km
Semi-major axis
7,320.535 km
Eccentricity
0.00142
Inclination
82.5265°
RAAN
256.2622°
Arg. of periapsis
131.4269°
True anomaly
228.68921°
Mean anomaly
228.8118°
Eccentric anomaly
228.75049°
Mean motion
3.4652 °/min
Orbital period
103.89 mins
BSTAR
0.000041235
Loading maneuver chart data...
Computing Atmospheric mass density...
Loading historical data...
Loading historical data...
Loading historical data...
Loading historical data...
Loading historical data...
Loading historical data...
Loading historical data...

Documentation

Showing up to 5 results
|